THORAD AGENA D DEB, 5060

Orbit data source: Space-Track

THORAD AGENA D DEB, 5060 is space debris in SSO originally from a launch on Wed, 08 Apr 1970 UTC launched from the Air Force Western Test Range (AFWTR). Debris objects in space refer to the collection of defunct objects orbiting the Earth. Examples of debris include non-operational satellites, rocket bodies, and fragments generated from explosions, collisions, or faulty payload assembly.

Loading next visibility...
Identifier
5060, 1970-025JE
Orbit
SSO
Country
Flag of USUS
Related business
Manufacturer
Unknown
Mission
Spacecraft
Bus & Motor
Unknown
Mass
Unknown
Launch date (UTC)
1970-04-08 (56 years ago)
Launch vehicle
Unknown
Launch site
Air Force Western Test Range (AFWTR)
Object type
Payload
Rocket body
Debris
Shape & HBR
Unknown shape, 0.1 m
Radar Cross Section
Small (<0.1 m²)

Expand to show TLE details & history
Last TLE update: 11 hours ago

TLE from 11 hours ago
0 THORAD AGENA D DEB
1 05060U 70025JE  26034.13163482  .00000936  00000-0  43810-3 0  9995
2 05060  99.9920 108.5491 0144979 157.3159 203.4506 14.17705965858561
Epoch: 2026-02-03T03:09Z
TLE epoch observation values (Epoch: 2026-02-03T03:09:33.248Z)
Latitude
-0°
Longitude
-72.1564°
Altitude
932.157 km
Speed
7.336 km/s
True Right ascension
07h 14m 11s
True Declination
0° 00' 00"
Sunlit
Object was in full shadow at epoch
Visualization orbit readout
Latitude
Unknown
Longitude
Unknown
Altitude
Unknown
Speed
Unknown
Apparent Right ascension
Unknown
Apparent Declination
Unknown
Sunlit
N/A
Visualization observer readout
Local Sidereal Time
16:33:36
Azimuth
Unknown
Elevation
Unknown
Doppler factor
Unknown
Orbital elements
Apogee altitude
934.856 km
Perigee altitude
725.84 km
Semi-major axis
7,208.485 km
Eccentricity
0.0145
Inclination
99.992°
RAAN
108.5491°
Arg. of periapsis
157.3159°
True anomaly
202.80029°
Mean anomaly
203.4506°
Eccentric anomaly
203.12437°
Mean motion
3.54631 °/min
Orbital period
101.51 mins
BSTAR
0.0004381
Loading maneuver chart data...
Computing Atmospheric mass density...

Documentation

Showing up to 5 results
|